Location: Flamengo
(19.8052°S, 43.9907°W)
Time: 18:25:27
(UTC+00:00)

Daily predictions for brighter satellites

Satellite Brightness Start Highest point End
(mag) Time Altitude Azimuth Time Altitude Azimuth Time Altitude Azimuth
CSL-04 Rocket 4.1 21:44:09 10° SSE 21:49:10 40° E 21:54:04 10° N
ADEOS Rocket 3.2 21:43:13 10° NNE 21:49:10 89° WNW 21:55:52 10° SSW
Aureole 3 Rocket 3.7 21:50:41 10° N 21:55:19 73° E 22:01:59 10° S
SL-8 R/B 3.7 21:50:29 10° NW 21:55:20 87° NE 22:00:12 10° SE
CZ-2C R/B 3.7 21:56:29 10° NNE 22:00:59 86° ESE 22:05:29 10° S
Hubble Space Telescope 2.8 21:59:43 10° WSW 22:03:09 24° S 22:06:35 10° SE
PSLV R/B 3.1 22:02:13 10° SW 22:04:33 41° SE 22:06:33 13° ENE
Cosmos 968 Rocket 3.7 22:01:00 10° S 22:06:12 56° ESE 22:11:20 10° NNE
YAOGAN 6 4.3 22:03:15 10° S 22:06:31 36° WSW 22:09:44 10° NW
Cosmos 405 Rocket 2.7 22:04:20 10° N 22:08:10 76° E 22:12:08 10° S
Cosmos 1503 Rocket 4.2 22:04:46 10° S 22:09:51 53° ESE 22:14:51 10° NNE
CSL-04 Debris 4.2 22:05:34 10° SSE 22:11:06 73° ENE 22:16:34 10° N
Cosmos 1943 Rocket 3.4 22:08:07 10° NNE 22:12:01 20° ENE 22:15:53 10° ESE
Cosmos 1833 Rocket 3.7 22:08:20 10° S 22:13:05 28° ESE 22:16:59 14° ENE
Cosmos 1842 4.0 22:10:15 10° SSE 22:13:46 32° E 22:16:52 12° NE
Cosmos 1300 Rocket 3.8 22:13:27 10° N 22:17:46 72° W 22:22:10 10° S
Cosmos 1184 Rocket 4.1 22:16:26 15° NE 22:18:18 23° E 22:20:59 10° SE
Cosmos 2098 Rocket 3.1 22:13:36 10° S 22:18:31 60° E 22:22:19 10° NNE
Ariane Rocket 3.6 22:15:07 10° SE 22:19:44 34° E 22:24:18 10° NNE
Cosmos 1354 Rocket 4.0 22:17:42 10° S 22:22:58 66° ESE 22:27:56 11° NNE
ISS -3.2 22:20:19 10° NNW 22:23:27 36° NE 22:26:37 10° ESE
NOSS 3-3 (A) 3.8 22:19:50 10° SSW 22:25:48 87° WNW 22:31:02 12° NNE
NOSS 3-3 (C) 3.8 22:19:58 10° SSW 22:25:57 88° WNW 22:31:08 12° NNE
SAR-Lupe-2 4.3 22:23:23 10° N 22:26:52 53° W 22:30:24 10° SSW
HJ-1C 3.6 22:24:44 10° SSE 22:27:58 46° E 22:30:59 11° N
Genesis I 3.0 22:24:20 10° NNW 22:28:04 70° ENE 22:31:51 10° SSE
ATLAS CENTAUR R/B 0.0 22:26:11 10° SSW 22:28:10 72° ESE 22:28:40 40° NE
Meteor 1-4 Rocket 2.9 22:25:28 10° S 22:28:56 44° E 22:31:05 20° NNE
Okean 2 3.9 22:25:16 10° SSW 22:29:26 61° W 22:33:32 10° N
CZ-2C R/B 3.4 22:26:29 16° NE 22:30:10 36° ESE 22:35:13 10° S
FREGAT/IRIS 4.0 22:28:16 10° SE 22:29:50 19° ESE 22:29:50 19° ESE
Cosmos 1536 Rocket 4.1 22:26:55 10° SSE 22:31:09 41° E 22:33:50 20° NE
Cosmos 1939 Rocket 3.2 22:27:54 10° S 22:32:05 73° WSW 22:36:08 10° NNW
CZ-2D R/B 3.8 22:29:33 10° S 22:33:25 62° WSW 22:37:14 10° NNW
DMSP B5D2-2 4.1 22:30:59 12° NNE 22:35:45 65° ESE 22:41:02 10° S
COSMOS 2406 3.5 22:30:11 10° SSW 22:35:57 72° WNW 22:41:41 10° N
NOAA 11 4.4 22:32:52 10° S 22:38:19 73° WSW 22:43:43 10° NNW
Okean 1 Rocket 3.0 22:35:32 10° N 22:39:55 69° E 22:44:23 10° S
Cosmos 1378 4.0 22:38:43 10° SSW 22:42:20 49° W 22:45:54 10° NNW
Meteor 2-21 Rocket 4.4 22:36:45 10° S 22:42:55 79° E 22:48:40 12° N
Palapa 6 Rocket 3.0 22:38:37 10° WNW 22:43:39 88° SSW 22:46:24 22° ESE
Cosmos 389 Rocket 3.7 22:42:03 10° SSW 22:45:30 42° W 22:48:56 10° NNW
IRS-1A Rocket 4.3 22:44:17 10° SSE 22:49:54 64° ENE 22:55:36 10° N
Cosmos 1745 Rocket 4.3 22:44:58 10° S 22:51:20 73° W 22:57:39 10° N
NATO 3D Rocket 3.3 22:52:53 10° W 22:57:40 72° S 23:00:04 29° E
Cosmos 1437 Rocket 3.4 22:55:39 10° SSE 22:59:22 38° E 22:59:22 38° E
Cosmos 2082 Rocket 2.5 22:54:19 10° S 22:59:54 51° ESE 23:01:50 36° ENE
SJ-6B 3.5 22:56:26 10° SSE 22:59:24 36° ESE 22:59:24 36° ESE
Delta 7925 Rocket 4.0 22:57:51 10° WSW 23:02:26 47° S 23:05:09 25° ESE
Delta 168 3.9 23:00:31 10° WSW 23:03:53 31° S 23:04:59 24° SE
SL-24 R/B 3.7 23:05:48 59° NE 23:06:20 68° ESE 23:10:31 10° S
Cosmos 1763 Rocket 4.1 23:08:31 36° E 23:08:31 36° E 23:12:54 10° SE
Cosmos 1867 3.4 23:03:17 10° NNW 23:08:38 68° ENE 23:13:59 10° SSE
Atlas Centaur 2 3.4 23:01:39 10° NW 23:09:31 42° NNE 23:12:25 33° ENE
FALCON 9 R/B 3.5 22:46:10 10° WSW 23:13:22 82° SSE 23:17:06 36° ENE
Meteor 2-15 4.3 23:10:08 21° N 23:14:29 81° E 23:20:41 10° S
Cosmos 1025 Rocket 3.8 23:11:11 10° SSW 23:15:27 51° W 23:17:37 26° NNW
ATLAS CENTAUR R/B 3.6 23:13:51 10° WSW 23:17:38 24° WNW 23:20:24 15° NNW
Cosmos 2285 Rocket 4.1 23:11:10 10° SSW 23:17:39 81° WNW 23:20:46 33° N
Cosmos 1707 3.2 23:27:36 10° S 23:30:59 59° SW 23:30:59 59° SW
Aurora 2 Rocket 3.6 23:28:44 10° WSW 23:30:49 29° SW 23:30:49 29° SW
Cosmos 2369 Rocket 2.4 23:28:27 10° NNW 23:34:07 70° WSW 23:39:50 10° SSE
CZ-2C R/B 3.1 23:30:52 10° SSE 23:35:38 64° ESE 23:35:38 64° ESE
Resurs 01 Rocket 3.8 23:33:43 10° SSE 23:34:33 15° SE 23:34:33 15° SE
Molniya-1 3.8 23:32:32 10° SSW 23:37:47 67° S 23:37:47 67° S
In-Cosmos 22 4.1 23:35:54 10° S 23:41:39 75° E 23:41:43 74° E
Hubble Space Telescope 2.4 23:41:16 10° SW 23:44:38 29° S 23:44:38 29° S
H-2A R/B 2.5 23:40:42 10° S 23:46:04 61° WSW 23:47:48 40° NW
ARGOS 3.3 23:41:35 10° S 23:47:02 72° WSW 23:48:02 57° NW
